Time,TemperatureF,DewpointF,PressureIn,WindDirection,WindDirectionDegrees,WindSpeedMPH,WindSpeedGustMPH,Humidity,HourlyPrecipIn,Conditions,Clouds,dailyrainin,SoftwareType,DateUTC
2013-04-08 00:00:00,63.5,53.1,29.64,SSE,160,4.0,4.0,69,0.00,,,0.00,Wunderground v.1.15,2013-04-08 05:00:00,
2013-04-08 00:05:00,63.4,53.0,29.64,SSW,196,4.0,8.0,69,0.00,,,0.00,Wunderground v.1.15,2013-04-08 05:05:00,
2013-04-08 00:10:00,63.3,53.3,29.64,SSE,164,3.0,8.0,70,0.00,,,0.00,Wunderground v.1.15,2013-04-08 05:10:00,
2013-04-08 00:15:00,63.2,53.3,29.64,SSE,160,4.0,8.0,70,0.00,,,0.00,Wunderground v.1.15,2013-04-08 05:15:00,
2013-04-08 00:20:00,63.3,53.0,29.64,SSE,167,4.0,8.0,69,0.00,,,0.00,Wunderground v.1.15,2013-04-08 05:20:00,
2013-04-08 00:25:00,63.3,53.3,29.64,South,169,5.0,8.0,70,0.00,,,0.00,Wunderground v.1.15,2013-04-08 05:25:00,
2013-04-08 00:30:00,63.3,53.3,29.64,South,176,5.0,5.0,70,0.00,,,0.00,Wunderground v.1.15,2013-04-08 05:30:00,
2013-04-08 00:35:00,63.3,53.3,29.64,SSE,163,4.0,8.0,70,0.00,,,0.00,Wunderground v.1.15,2013-04-08 05:35:00,
2013-04-08 00:45:00,63.3,53.3,29.65,SSE,161,4.0,8.0,70,0.00,,,0.00,Wunderground v.1.15,2013-04-08 05:45:00,
2013-04-08 00:50:00,63.1,53.2,29.65,South,171,4.0,4.0,70,0.00,,,0.00,Wunderground v.1.15,2013-04-08 05:50:00,
2013-04-08 01:00:00,63.1,53.5,29.64,South,171,3.0,8.0,71,0.00,,,0.00,Wunderground v.1.15,2013-04-08 06:00:00,
2013-04-08 01:05:00,63.3,53.3,29.64,SSE,161,4.0,8.0,70,0.00,,,0.00,Wunderground v.1.15,2013-04-08 06:05:00,
2013-04-08 01:15:00,63.5,53.5,29.64,South,191,3.0,8.0,70,0.00,,,0.00,Wunderground v.1.15,2013-04-08 06:15:00,
2013-04-08 01:25:00,63.8,53.8,29.64,SSE,152,4.0,8.0,70,0.00,,,0.00,Wunderground v.1.15,2013-04-08 06:25:00,
2013-04-08 01:30:00,63.8,53.8,29.64,South,179,4.0,4.0,70,0.00,,,0.00,Wunderground v.1.15,2013-04-08 06:30:00,
2013-04-08 01:35:00,63.9,53.9,29.64,South,187,3.0,8.0,70,0.00,,,0.00,Wunderground v.1.15,2013-04-08 06:35:00,
2013-04-08 01:40:00,64.0,54.0,29.64,South,173,3.0,8.0,70,0.00,,,0.00,Wunderground v.1.15,2013-04-08 06:40:00,
2013-04-08 01:50:00,64.1,54.1,29.64,South,182,2.0,2.0,70,0.00,,,0.00,Wunderground v.1.15,2013-04-08 06:50:00,
2013-04-08 01:55:00,64.0,54.0,29.64,South,175,2.0,4.0,70,0.00,,,0.00,Wunderground v.1.15,2013-04-08 06:55:00,
2013-04-08 02:05:00,64.0,54.0,29.64,SSE,165,1.0,3.0,70,0.00,,,0.00,Wunderground v.1.15,2013-04-08 07:05:00,
2013-04-08 02:10:00,63.9,53.9,29.64,SSE,167,1.0,8.0,70,0.00,,,0.00,Wunderground v.1.15,2013-04-08 07:10:00,
2013-04-08 02:15:00,63.9,54.3,29.64,SSW,195,2.0,8.0,71,0.00,,,0.00,Wunderground v.1.15,2013-04-08 07:15:00,
2013-04-08 02:25:00,64.1,54.1,29.64,SSW,211,2.0,8.0,70,0.00,,,0.00,Wunderground v.1.15,2013-04-08 07:25:00,
2013-04-08 02:30:00,64.1,54.1,29.64,South,177,2.0,2.0,70,0.00,,,0.00,Wunderground v.1.15,2013-04-08 07:30:00,
2013-04-08 02:40:00,64.3,54.3,29.64,South,174,1.0,1.0,70,0.00,,,0.00,Wunderground v.1.15,2013-04-08 07:40:00,
2013-04-08 02:45:00,64.4,54.8,29.64,SSW,194,1.0,8.0,71,0.00,,,0.00,Wunderground v.1.15,2013-04-08 07:45:00,
2013-04-08 02:50:00,64.5,54.9,29.64,South,180,1.0,8.0,71,0.00,,,0.00,Wunderground v.1.15,2013-04-08 07:50:00,
2013-04-08 03:00:00,64.9,55.3,29.64,SSW,192,5.0,5.0,71,0.00,,,0.00,Wunderground v.1.15,2013-04-08 08:00:00,
2013-04-08 03:05:00,65.0,55.4,29.64,South,189,4.0,8.0,71,0.00,,,0.00,Wunderground v.1.15,2013-04-08 08:05:00,
2013-04-08 03:10:00,65.0,55.4,29.64,SSW,192,4.0,8.0,71,0.00,,,0.00,Wunderground v.1.15,2013-04-08 08:10:00,
2013-04-08 03:15:00,65.0,55.4,29.64,South,189,4.0,8.0,71,0.00,,,0.00,Wunderground v.1.15,2013-04-08 08:15:00,
2013-04-08 03:20:00,65.0,55.4,29.64,SSW,206,4.0,8.0,71,0.00,,,0.00,Wunderground v.1.15,2013-04-08 08:20:00,
2013-04-08 03:30:00,65.0,55.8,29.64,SSW,206,4.0,8.0,72,0.00,,,0.00,Wunderground v.1.15,2013-04-08 08:30:00,
2013-04-08 03:40:00,64.9,56.0,29.64,SSW,200,2.0,8.0,73,0.00,,,0.00,Wunderground v.1.15,2013-04-08 08:40:00,
2013-04-08 03:45:00,64.8,55.9,29.64,SW,215,1.0,8.0,73,0.00,,,0.00,Wunderground v.1.15,2013-04-08 08:45:00,
2013-04-08 03:50:00,64.8,55.9,29.64,SSW,194,2.0,8.0,73,0.00,,,0.00,Wunderground v.1.15,2013-04-08 08:50:00,
2013-04-08 03:55:00,64.8,56.3,29.63,South,187,2.0,8.0,74,0.00,,,0.00,Wunderground v.1.15,2013-04-08 08:55:00,
2013-04-08 04:00:00,64.7,56.2,29.63,SSW,209,2.0,2.0,74,0.00,,,0.00,Wunderground v.1.15,2013-04-08 09:00:00,
2013-04-08 04:05:00,64.7,56.6,29.63,South,187,2.0,8.0,75,0.00,,,0.00,Wunderground v.1.15,2013-04-08 09:05:00,
2013-04-08 04:15:00,64.9,56.8,29.64,SSW,208,3.0,7.0,75,0.00,,,0.00,Wunderground v.1.15,2013-04-08 09:15:00,
2013-04-08 04:25:00,65.1,57.3,29.63,SSW,199,6.0,8.0,76,0.00,,,0.00,Wunderground v.1.15,2013-04-08 09:25:00,
2013-04-08 04:30:00,65.2,57.4,29.63,SSW,205,7.0,8.0,76,0.00,,,0.00,Wunderground v.1.15,2013-04-08 09:30:00,
2013-04-08 04:35:00,65.2,57.4,29.63,SW,227,5.0,8.0,76,0.00,,,0.00,Wunderground v.1.15,2013-04-08 09:35:00,
2013-04-08 04:40:00,65.1,57.3,29.63,WSW,238,5.0,11.0,76,0.00,,,0.00,Wunderground v.1.15,2013-04-08 09:40:00,
2013-04-08 04:50:00,65.0,57.6,29.63,SSW,208,5.0,9.0,77,0.00,,,0.00,Wunderground v.1.15,2013-04-08 09:50:00,
2013-04-08 04:55:00,64.9,57.5,29.64,SW,223,5.0,9.0,77,0.00,,,0.00,Wunderground v.1.15,2013-04-08 09:55:00,
2013-04-08 05:05:00,64.8,57.8,29.64,SSW,212,7.0,8.0,78,0.00,,,0.00,Wunderground v.1.15,2013-04-08 10:05:00,
2013-04-08 05:10:00,64.8,57.8,29.64,SSW,208,6.0,10.0,78,0.00,,,0.00,Wunderground v.1.15,2013-04-08 10:10:00,
2013-04-08 05:15:00,64.7,57.7,29.64,South,184,6.0,10.0,78,0.00,,,0.00,Wunderground v.1.15,2013-04-08 10:15:00,
2013-04-08 05:25:00,64.6,57.9,29.64,South,183,4.0,8.0,79,0.00,,,0.00,Wunderground v.1.15,2013-04-08 10:25:00,
2013-04-08 05:30:00,64.5,57.8,29.64,SSW,213,3.0,8.0,79,0.00,,,0.00,Wunderground v.1.15,2013-04-08 10:30:00,
2013-04-08 05:35:00,64.5,57.8,29.64,SW,219,4.0,8.0,79,0.00,,,0.00,Wunderground v.1.15,2013-04-08 10:35:00,
2013-04-08 05:40:00,64.6,57.9,29.65,SW,222,6.0,8.0,79,0.00,,,0.00,Wunderground v.1.15,2013-04-08 10:40:00,
2013-04-08 05:45:00,64.5,58.2,29.65,SW,233,6.0,10.0,80,0.00,,,0.00,Wunderground v.1.15,2013-04-08 10:45:00,
2013-04-08 05:50:00,64.5,58.2,29.65,SSW,209,6.0,6.0,80,0.00,,,0.00,Wunderground v.1.15,2013-04-08 10:50:00,
2013-04-08 06:00:00,64.4,58.1,29.65,SW,221,5.0,5.0,80,0.00,,,0.00,Wunderground v.1.15,2013-04-08 11:00:00,
2013-04-08 06:10:00,64.3,58.0,29.65,SSW,209,4.0,8.0,80,0.00,,,0.00,Wunderground v.1.15,2013-04-08 11:10:00,
2013-04-08 06:15:00,64.2,58.2,29.65,South,191,4.0,8.0,81,0.00,,,0.00,Wunderground v.1.15,2013-04-08 11:15:00,
2013-04-08 06:20:00,64.1,58.1,29.65,SSE,168,4.0,8.0,81,0.00,,,0.00,Wunderground v.1.15,2013-04-08 11:20:00,
2013-04-08 06:25:00,64.1,58.5,29.66,SSW,199,5.0,8.0,82,0.00,,,0.00,Wunderground v.1.15,2013-04-08 11:25:00,
2013-04-08 06:35:00,63.9,58.3,29.66,SW,216,4.0,8.0,82,0.00,,,0.00,Wunderground v.1.15,2013-04-08 11:35:00,
2013-04-08 06:40:00,63.8,58.2,29.66,SW,222,5.0,8.0,82,0.00,,,0.00,Wunderground v.1.15,2013-04-08 11:40:00,
2013-04-08 06:45:00,63.8,58.2,29.66,SSW,205,5.0,8.0,82,0.00,,,0.00,Wunderground v.1.15,2013-04-08 11:45:00,
2013-04-08 06:50:00,63.8,58.5,29.66,South,184,5.0,5.0,83,0.00,,,0.00,Wunderground v.1.15,2013-04-08 11:50:00,
2013-04-08 07:00:00,63.6,58.3,29.67,South,191,4.0,4.0,83,0.00,,,0.00,Wunderground v.1.15,2013-04-08 12:00:00,
2013-04-08 07:10:00,63.6,58.3,29.67,SSW,205,4.0,4.0,83,0.00,,,0.00,Wunderground v.1.15,2013-04-08 12:10:00,
2013-04-08 07:15:00,63.6,58.3,29.67,SSW,211,5.0,6.0,83,0.00,,,0.00,Wunderground v.1.15,2013-04-08 12:15:00,
2013-04-08 07:20:00,63.7,58.4,29.67,South,184,5.0,5.0,83,0.00,,,0.00,Wunderground v.1.15,2013-04-08 12:20:00,
2013-04-08 07:30:00,63.8,58.5,29.68,SSW,209,5.0,5.0,83,0.00,,,0.00,Wunderground v.1.15,2013-04-08 12:30:00,
2013-04-08 07:35:00,63.9,58.6,29.68,SW,218,5.0,8.0,83,0.00,,,0.00,Wunderground v.1.15,2013-04-08 12:35:00,
2013-04-08 07:45:00,64.0,58.7,29.68,SSW,198,5.0,8.0,83,0.00,,,0.00,Wunderground v.1.15,2013-04-08 12:45:00,
2013-04-08 07:50:00,64.1,58.8,29.68,SSW,206,4.0,8.0,83,0.00,,,0.00,Wunderground v.1.15,2013-04-08 12:50:00,
2013-04-08 08:00:00,64.4,59.1,29.69,SW,214,5.0,8.0,83,0.00,,,0.00,Wunderground v.1.15,2013-04-08 13:00:00,
2013-04-08 08:05:00,64.5,59.2,29.69,South,172,6.0,8.0,83,0.00,,,0.00,Wunderground v.1.15,2013-04-08 13:05:00,
2013-04-08 08:10:00,64.6,59.3,29.69,SSW,209,5.0,8.0,83,0.00,,,0.00,Wunderground v.1.15,2013-04-08 13:10:00,
2013-04-08 08:20:00,64.9,59.3,29.69,SSE,157,5.0,8.0,82,0.00,,,0.00,Wunderground v.1.15,2013-04-08 13:20:00,
2013-04-08 08:25:00,64.9,59.6,29.69,South,189,6.0,8.0,83,0.00,,,0.00,Wunderground v.1.15,2013-04-08 13:25:00,
2013-04-08 08:35:00,65.2,59.6,29.69,South,178,7.0,8.0,82,0.00,,,0.00,Wunderground v.1.15,2013-04-08 13:35:00,
2013-04-08 08:40:00,65.3,59.7,29.69,SSW,200,8.0,8.0,82,0.00,,,0.00,Wunderground v.1.15,2013-04-08 13:40:00,
2013-04-08 08:50:00,65.6,59.6,29.69,SSW,192,7.0,7.0,81,0.00,,,0.00,Wunderground v.1.15,2013-04-08 13:50:00,
2013-04-08 08:55:00,65.7,59.7,29.70,South,178,6.0,8.0,81,0.00,,,0.00,Wunderground v.1.15,2013-04-08 13:55:00,
2013-04-08 09:00:00,65.9,59.9,29.70,South,178,6.0,6.0,81,0.00,,,0.00,Wunderground v.1.15,2013-04-08 14:00:00,
2013-04-08 09:05:00,66.1,60.1,29.70,SSW,198,5.0,8.0,81,0.00,,,0.00,Wunderground v.1.15,2013-04-08 14:05:00,
2013-04-08 09:10:00,66.3,59.9,29.70,SW,215,5.0,8.0,80,0.00,,,0.00,Wunderground v.1.15,2013-04-08 14:10:00,
2013-04-08 09:15:00,66.5,60.1,29.70,South,178,6.0,8.0,80,0.00,,,0.00,Wunderground v.1.15,2013-04-08 14:15:00,
2013-04-08 09:20:00,66.7,60.0,29.70,SSW,209,5.0,8.0,79,0.00,,,0.00,Wunderground v.1.15,2013-04-08 14:20:00,
2013-04-08 09:30:00,67.0,60.3,29.71,SW,217,5.0,8.0,79,0.00,,,0.00,Wunderground v.1.15,2013-04-08 14:30:00,
2013-04-08 09:40:00,67.4,60.3,29.72,SSW,192,6.0,6.0,78,0.00,,,0.00,Wunderground v.1.15,2013-04-08 14:40:00,
2013-04-08 09:45:00,67.6,60.5,29.72,SW,219,6.0,9.0,78,0.00,,,0.00,Wunderground v.1.15,2013-04-08 14:45:00,
2013-04-08 09:50:00,67.8,60.3,29.72,SW,232,5.0,9.0,77,0.00,,,0.00,Wunderground v.1.15,2013-04-08 14:50:00,
2013-04-08 09:55:00,68.1,60.2,29.72,WSW,241,6.0,9.0,76,0.00,,,0.00,Wunderground v.1.15,2013-04-08 14:55:00,
2013-04-08 10:05:00,68.7,60.5,29.72,SW,219,5.0,8.0,75,0.00,,,0.00,Wunderground v.1.15,2013-04-08 15:05:00,
2013-04-08 10:15:00,69.0,60.4,29.72,SW,230,7.0,7.0,74,0.00,,,0.00,Wunderground v.1.15,2013-04-08 15:15:00,
2013-04-08 10:20:00,69.5,60.5,29.72,SSW,198,6.0,6.0,73,0.00,,,0.00,Wunderground v.1.15,2013-04-08 15:20:00,
2013-04-08 10:25:00,69.6,60.6,29.73,SSW,211,5.0,11.0,73,0.00,,,0.00,Wunderground v.1.15,2013-04-08 15:25:00,
2013-04-08 10:30:00,69.2,60.2,29.73,SW,219,7.0,7.0,73,0.00,,,0.00,Wunderground v.1.15,2013-04-08 15:30:00,
2013-04-08 10:40:00,69.5,60.1,29.73,SSW,192,6.0,6.0,72,0.00,,,0.00,Wunderground v.1.15,2013-04-08 15:40:00,
2013-04-08 10:45:00,69.5,60.1,29.73,South,180,5.0,8.0,72,0.00,,,0.00,Wunderground v.1.15,2013-04-08 15:45:00,
2013-04-08 10:50:00,69.7,59.9,29.73,SSW,203,6.0,8.0,71,0.00,,,0.00,Wunderground v.1.15,2013-04-08 15:50:00,
2013-04-08 10:55:00,70.1,60.3,29.73,South,187,7.0,8.0,71,0.00,,,0.00,Wunderground v.1.15,2013-04-08 15:55:00,
2013-04-08 11:05:00,70.1,59.9,29.73,SW,217,7.0,7.0,70,0.00,,,0.00,Wunderground v.1.15,2013-04-08 16:05:00,
2013-04-08 11:10:00,70.2,60.0,29.73,SSW,202,7.0,8.0,70,0.00,,,0.00,Wunderground v.1.15,2013-04-08 16:10:00,
2013-04-08 11:15:00,70.5,60.2,29.73,SSW,213,5.0,10.0,70,0.00,,,0.00,Wunderground v.1.15,2013-04-08 16:15:00,
2013-04-08 11:20:00,70.4,60.1,29.73,SSW,205,5.0,8.0,70,0.00,,,0.00,Wunderground v.1.15,2013-04-08 16:20:00,
2013-04-08 11:25:00,70.6,60.3,29.73,South,178,4.0,8.0,70,0.00,,,0.00,Wunderground v.1.15,2013-04-08 16:25:00,
2013-04-08 11:30:00,70.6,60.3,29.73,SW,222,4.0,11.0,70,0.00,,,0.00,Wunderground v.1.15,2013-04-08 16:30:00,
2013-04-08 11:35:00,70.8,60.5,29.73,SSW,213,5.0,11.0,70,0.00,,,0.00,Wunderground v.1.15,2013-04-08 16:35:00,
2013-04-08 11:45:00,70.9,59.8,29.72,SSW,194,4.0,9.0,68,0.00,,,0.00,Wunderground v.1.15,2013-04-08 16:45:00,
2013-04-08 11:55:00,70.5,59.4,29.72,SSW,210,7.0,11.0,68,0.00,,,0.00,Wunderground v.1.15,2013-04-08 16:55:00,
2013-04-08 12:00:00,70.5,59.4,29.72,SW,226,6.0,8.0,68,0.00,,,0.00,Wunderground v.1.15,2013-04-08 17:00:00,
2013-04-08 12:05:00,70.7,59.6,29.72,South,182,5.0,8.0,68,0.00,,,0.00,Wunderground v.1.15,2013-04-08 17:05:00,
2013-04-08 12:10:00,70.7,59.6,29.71,South,171,5.0,8.0,68,0.00,,,0.00,Wunderground v.1.15,2013-04-08 17:10:00,
2013-04-08 12:15:00,70.6,59.5,29.71,SSE,161,5.0,10.0,68,0.00,,,0.00,Wunderground v.1.15,2013-04-08 17:15:00,
2013-04-08 12:25:00,70.6,59.5,29.71,SSW,210,7.0,11.0,68,0.00,,,0.00,Wunderground v.1.15,2013-04-08 17:25:00,
2013-04-08 12:35:00,70.3,59.2,29.71,SW,215,7.0,12.0,68,0.00,,,0.00,Wunderground v.1.15,2013-04-08 17:35:00,
2013-04-08 12:40:00,70.3,59.6,29.70,SSW,207,7.0,7.0,69,0.00,,,0.00,Wunderground v.1.15,2013-04-08 17:40:00,
2013-04-08 12:45:00,70.8,60.1,29.70,South,186,6.0,8.0,69,0.00,,,0.00,Wunderground v.1.15,2013-04-08 17:45:00,
2013-04-08 12:55:00,72.6,60.2,29.69,South,180,7.0,8.0,65,0.00,,,0.00,Wunderground v.1.15,2013-04-08 17:55:00,
2013-04-08 13:00:00,-999.9,-99.9,-32.77,North,32767,-999.0,8.0,255,-99.99,,,0.00,Wunderground v.1.15,2013-04-08 18:00:00,
2013-04-08 13:10:00,-999.9,-99.9,-32.77,North,32767,-999.0,8.0,255,-99.99,,,0.00,Wunderground v.1.15,2013-04-08 18:10:00,
2013-04-08 13:15:00,-999.9,-99.9,-32.77,North,32767,-999.0,8.0,255,-99.99,,,0.00,Wunderground v.1.15,2013-04-08 18:15:00,
2013-04-08 13:20:00,-999.9,-99.9,-32.77,North,32767,-999.0,8.0,255,-99.99,,,0.00,Wunderground v.1.15,2013-04-08 18:20:00,
2013-04-08 13:25:00,-999.9,-99.9,-32.77,North,32767,-999.0,8.0,255,-99.99,,,0.00,Wunderground v.1.15,2013-04-08 18:25:00,
2013-04-08 13:30:00,-999.9,-99.9,-32.77,North,32767,-999.0,8.0,255,-99.99,,,0.00,Wunderground v.1.15,2013-04-08 18:30:00,
2013-04-08 13:40:00,-999.9,-99.9,-32.77,North,32767,-999.0,8.0,255,-99.99,,,0.00,Wunderground v.1.15,2013-04-08 18:40:00,
2013-04-08 13:50:00,-999.9,-99.9,-32.77,North,32767,-999.0,8.0,255,-99.99,,,0.00,Wunderground v.1.15,2013-04-08 18:50:00,
2013-04-08 13:55:00,-999.9,-99.9,-32.77,North,32767,-999.0,8.0,255,-99.99,,,0.00,Wunderground v.1.15,2013-04-08 18:55:00,
2013-04-08 14:00:00,-999.9,-99.9,-32.77,North,32767,-999.0,8.0,255,-99.99,,,0.00,Wunderground v.1.15,2013-04-08 19:00:00,
2013-04-08 14:05:00,-999.9,-99.9,-32.77,North,32767,-999.0,8.0,255,-99.99,,,0.00,Wunderground v.1.15,2013-04-08 19:05:00,
2013-04-08 14:15:00,-999.9,-99.9,-32.77,North,32767,-999.0,8.0,255,-99.99,,,0.00,Wunderground v.1.15,2013-04-08 19:15:00,
2013-04-08 14:20:00,-999.9,-99.9,-32.77,North,32767,-999.0,8.0,255,-99.99,,,0.00,Wunderground v.1.15,2013-04-08 19:20:00,
2013-04-08 14:25:00,-999.9,-99.9,-32.77,North,32767,-999.0,8.0,255,-99.99,,,0.00,Wunderground v.1.15,2013-04-08 19:25:00,
2013-04-08 14:30:00,-999.9,-99.9,-32.77,North,32767,-999.0,8.0,255,-99.99,,,0.00,Wunderground v.1.15,2013-04-08 19:30:00,
2013-04-08 14:35:00,-999.9,-99.9,-32.77,North,32767,-999.0,8.0,255,-99.99,,,0.00,Wunderground v.1.15,2013-04-08 19:35:00,
2013-04-08 14:40:00,-999.9,-99.9,-32.77,North,32767,-999.0,8.0,255,-99.99,,,0.00,Wunderground v.1.15,2013-04-08 19:40:00,
2013-04-08 14:50:00,-999.9,-99.9,-32.77,North,32767,-999.0,8.0,255,-99.99,,,0.00,Wunderground v.1.15,2013-04-08 19:50:00,
2013-04-08 14:55:00,-999.9,-99.9,-32.77,North,32767,-999.0,8.0,255,-99.99,,,0.00,Wunderground v.1.15,2013-04-08 19:55:00,
2013-04-08 15:00:00,-999.9,-99.9,-32.77,North,32767,-999.0,8.0,255,-99.99,,,0.00,Wunderground v.1.15,2013-04-08 20:00:00,
2013-04-08 15:10:00,-999.9,-99.9,-32.77,North,32767,-999.0,8.0,255,-99.99,,,0.00,Wunderground v.1.15,2013-04-08 20:10:00,
2013-04-08 15:15:00,-999.9,-99.9,-32.77,North,32767,-999.0,8.0,255,-99.99,,,0.00,Wunderground v.1.15,2013-04-08 20:15:00,
2013-04-08 15:25:00,-999.9,-99.9,-32.77,North,32767,-999.0,8.0,255,-99.99,,,0.00,Wunderground v.1.15,2013-04-08 20:25:00,
2013-04-08 15:30:00,-999.9,-99.9,-32.77,North,32767,-999.0,8.0,255,-99.99,,,0.00,Wunderground v.1.15,2013-04-08 20:30:00,
2013-04-08 15:35:00,-999.9,-99.9,-32.77,North,32767,-999.0,8.0,255,-99.99,,,0.00,Wunderground v.1.15,2013-04-08 20:35:00,
2013-04-08 15:40:00,-999.9,-99.9,-32.77,North,32767,-999.0,8.0,255,-99.99,,,0.00,Wunderground v.1.15,2013-04-08 20:40:00,
2013-04-08 15:45:00,-999.9,-99.9,-32.77,North,32767,-999.0,8.0,255,-99.99,,,0.00,Wunderground v.1.15,2013-04-08 20:45:00,
2013-04-08 15:50:00,-999.9,-99.9,-32.77,North,32767,-999.0,8.0,255,-99.99,,,0.00,Wunderground v.1.15,2013-04-08 20:50:00,
2013-04-08 15:55:00,-999.9,-99.9,-32.77,North,32767,-999.0,8.0,255,-99.99,,,0.00,Wunderground v.1.15,2013-04-08 20:55:00,
2013-04-08 16:05:00,-999.9,-99.9,-32.77,North,32767,-999.0,8.0,255,-99.99,,,0.00,Wunderground v.1.15,2013-04-08 21:05:00,
2013-04-08 16:10:00,-999.9,-99.9,-32.77,North,32767,-999.0,8.0,255,-99.99,,,0.00,Wunderground v.1.15,2013-04-08 21:10:00,
2013-04-08 16:15:00,-999.9,-99.9,-32.77,North,32767,-999.0,8.0,255,-99.99,,,0.00,Wunderground v.1.15,2013-04-08 21:15:00,
2013-04-08 16:20:00,-999.9,-99.9,-32.77,North,32767,-999.0,8.0,255,-99.99,,,0.00,Wunderground v.1.15,2013-04-08 21:20:00,
2013-04-08 16:25:00,-999.9,-99.9,-32.77,North,32767,-999.0,8.0,255,-99.99,,,0.00,Wunderground v.1.15,2013-04-08 21:25:00,
2013-04-08 16:30:00,-999.9,-99.9,-32.77,North,32767,-999.0,8.0,255,-99.99,,,0.00,Wunderground v.1.15,2013-04-08 21:30:00,
2013-04-08 16:35:00,-999.9,-99.9,-32.77,North,32767,-999.0,8.0,255,-99.99,,,0.00,Wunderground v.1.15,2013-04-08 21:35:00,
2013-04-08 16:40:00,-999.9,-99.9,-32.77,North,32767,-999.0,8.0,255,-99.99,,,0.00,Wunderground v.1.15,2013-04-08 21:40:00,
2013-04-08 16:45:00,-999.9,-99.9,-32.77,North,32767,-999.0,8.0,255,-99.99,,,0.00,Wunderground v.1.15,2013-04-08 21:45:00,
2013-04-08 16:50:00,-999.9,-99.9,-32.77,North,32767,-999.0,8.0,255,-99.99,,,0.00,Wunderground v.1.15,2013-04-08 21:50:00,
2013-04-08 17:00:00,-999.9,-99.9,-32.77,North,32767,-999.0,8.0,255,-99.99,,,0.00,Wunderground v.1.15,2013-04-08 22:00:00,
2013-04-08 17:10:00,-999.9,-99.9,-32.77,North,32767,-999.0,8.0,255,-99.99,,,0.00,Wunderground v.1.15,2013-04-08 22:10:00,
2013-04-08 17:15:00,-999.9,-99.9,-32.77,North,32767,-999.0,8.0,255,-99.99,,,0.00,Wunderground v.1.15,2013-04-08 22:15:00,
2013-04-08 17:20:00,-999.9,-99.9,-32.77,North,32767,-999.0,8.0,255,-99.99,,,0.00,Wunderground v.1.15,2013-04-08 22:20:00,
2013-04-08 17:25:00,-999.9,-99.9,-32.77,North,32767,-999.0,8.0,255,-99.99,,,0.00,Wunderground v.1.15,2013-04-08 22:25:00,
2013-04-08 17:35:00,-999.9,-99.9,-32.77,North,32767,-999.0,8.0,255,-99.99,,,0.00,Wunderground v.1.15,2013-04-08 22:35:00,
2013-04-08 17:45:00,-999.9,-99.9,-32.77,North,32767,-999.0,8.0,255,-99.99,,,0.00,Wunderground v.1.15,2013-04-08 22:45:00,
2013-04-08 17:50:00,-999.9,-99.9,-32.77,North,32767,-999.0,8.0,255,-99.99,,,0.00,Wunderground v.1.15,2013-04-08 22:50:00,
2013-04-08 17:55:00,-999.9,-99.9,-32.77,North,32767,-999.0,8.0,255,-99.99,,,0.00,Wunderground v.1.15,2013-04-08 22:55:00,
2013-04-08 18:00:00,-999.9,-99.9,-32.77,North,32767,-999.0,8.0,255,-99.99,,,0.00,Wunderground v.1.15,2013-04-08 23:00:00,
2013-04-08 18:05:00,-999.9,-99.9,-32.77,North,32767,-999.0,8.0,255,-99.99,,,0.00,Wunderground v.1.15,2013-04-08 23:05:00,
2013-04-08 18:15:00,-999.9,-99.9,-32.77,North,32767,-999.0,8.0,255,-99.99,,,0.00,Wunderground v.1.15,2013-04-08 23:15:00,
2013-04-08 18:20:00,-999.9,-99.9,-32.77,North,32767,-999.0,8.0,255,-99.99,,,0.00,Wunderground v.1.15,2013-04-08 23:20:00,
2013-04-08 18:30:00,-999.9,-99.9,-32.77,North,32767,-999.0,8.0,255,-99.99,,,0.00,Wunderground v.1.15,2013-04-08 23:30:00,
2013-04-08 18:35:00,-999.9,-99.9,-32.77,North,32767,-999.0,8.0,255,-99.99,,,0.00,Wunderground v.1.15,2013-04-08 23:35:00,
2013-04-08 18:40:00,-999.9,-99.9,-32.77,North,32767,-999.0,8.0,255,-99.99,,,0.00,Wunderground v.1.15,2013-04-08 23:40:00,
2013-04-08 18:45:00,-999.9,-99.9,-32.77,North,32767,-999.0,8.0,255,-99.99,,,0.00,Wunderground v.1.15,2013-04-08 23:45:00,
2013-04-08 18:50:00,-999.9,-99.9,-32.77,North,32767,-999.0,8.0,255,-99.99,,,0.00,Wunderground v.1.15,2013-04-08 23:50:00,
2013-04-08 18:55:00,-999.9,-99.9,-32.77,North,32767,-999.0,8.0,255,-99.99,,,0.00,Wunderground v.1.15,2013-04-08 23:55:00,
2013-04-08 19:05:00,-999.9,-99.9,-32.77,North,32767,-999.0,8.0,255,-99.99,,,0.00,Wunderground v.1.15,2013-04-09 00:05:00,
2013-04-08 19:10:00,-999.9,-99.9,-32.77,North,32767,-999.0,8.0,255,-99.99,,,0.00,Wunderground v.1.15,2013-04-09 00:10:00,
2013-04-08 19:15:00,-999.9,-99.9,-32.77,North,32767,-999.0,8.0,255,-99.99,,,0.00,Wunderground v.1.15,2013-04-09 00:15:00,
2013-04-08 19:20:00,-999.9,-99.9,-32.77,North,32767,-999.0,8.0,255,-99.99,,,0.00,Wunderground v.1.15,2013-04-09 00:20:00,
2013-04-08 19:25:00,-999.9,-99.9,-32.77,North,32767,-999.0,8.0,255,-99.99,,,0.00,Wunderground v.1.15,2013-04-09 00:25:00,
2013-04-08 19:30:00,-999.9,-99.9,-32.77,North,32767,-999.0,8.0,255,-99.99,,,0.00,Wunderground v.1.15,2013-04-09 00:30:00,
2013-04-08 19:40:00,-999.9,-99.9,-32.77,North,32767,-999.0,8.0,255,-99.99,,,0.00,Wunderground v.1.15,2013-04-09 00:40:00,
2013-04-08 19:45:00,-999.9,-99.9,-32.77,North,32767,-999.0,8.0,255,-99.99,,,0.00,Wunderground v.1.15,2013-04-09 00:45:00,
2013-04-08 19:50:00,-999.9,-99.9,-32.77,North,32767,-999.0,8.0,255,-99.99,,,0.00,Wunderground v.1.15,2013-04-09 00:50:00,
2013-04-08 20:00:00,-999.9,-99.9,-32.77,North,32767,-999.0,8.0,255,-99.99,,,0.00,Wunderground v.1.15,2013-04-09 01:00:00,
2013-04-08 20:05:00,-999.9,-99.9,-32.77,North,32767,-999.0,8.0,255,-99.99,,,0.00,Wunderground v.1.15,2013-04-09 01:05:00,
2013-04-08 20:10:00,-999.9,-99.9,-32.77,North,32767,-999.0,8.0,255,-99.99,,,0.00,Wunderground v.1.15,2013-04-09 01:10:00,
2013-04-08 20:15:00,-999.9,-99.9,-32.77,North,32767,-999.0,8.0,255,-99.99,,,0.00,Wunderground v.1.15,2013-04-09 01:15:00,
2013-04-08 20:20:00,-999.9,-99.9,-32.77,North,32767,-999.0,8.0,255,-99.99,,,0.00,Wunderground v.1.15,2013-04-09 01:20:00,
2013-04-08 20:30:00,-999.9,-99.9,-32.77,North,32767,-999.0,8.0,255,-99.99,,,0.00,Wunderground v.1.15,2013-04-09 01:30:00,
2013-04-08 20:40:00,-999.9,-99.9,-32.77,North,32767,-999.0,8.0,255,-99.99,,,0.00,Wunderground v.1.15,2013-04-09 01:40:00,
2013-04-08 20:45:00,-999.9,-99.9,-32.77,North,32767,-999.0,8.0,255,-99.99,,,0.00,Wunderground v.1.15,2013-04-09 01:45:00,
2013-04-08 20:50:00,-999.9,-99.9,-32.77,North,32767,-999.0,8.0,255,-99.99,,,0.00,Wunderground v.1.15,2013-04-09 01:50:00,
2013-04-08 20:55:00,-999.9,-99.9,-32.77,North,32767,-999.0,8.0,255,-99.99,,,0.00,Wunderground v.1.15,2013-04-09 01:55:00,
2013-04-08 21:05:00,-999.9,-99.9,-32.77,North,32767,-999.0,8.0,255,-99.99,,,0.00,Wunderground v.1.15,2013-04-09 02:05:00,
2013-04-08 21:15:00,-999.9,-99.9,-32.77,North,32767,-999.0,8.0,255,-99.99,,,0.00,Wunderground v.1.15,2013-04-09 02:15:00,
2013-04-08 21:20:00,-999.9,-99.9,-32.77,North,32767,-999.0,8.0,255,-99.99,,,0.00,Wunderground v.1.15,2013-04-09 02:20:00,
2013-04-08 21:25:00,-999.9,-99.9,-32.77,North,32767,-999.0,8.0,255,-99.99,,,0.00,Wunderground v.1.15,2013-04-09 02:25:00,
2013-04-08 21:30:00,-999.9,-99.9,-32.77,North,32767,-999.0,8.0,255,-99.99,,,0.00,Wunderground v.1.15,2013-04-09 02:30:00,
2013-04-08 21:35:00,-999.9,-99.9,-32.77,North,32767,-999.0,8.0,255,-99.99,,,0.00,Wunderground v.1.15,2013-04-09 02:35:00,
2013-04-08 21:45:00,-999.9,-99.9,-32.77,North,32767,-999.0,8.0,255,-99.99,,,0.00,Wunderground v.1.15,2013-04-09 02:45:00,
2013-04-08 21:55:00,-999.9,-99.9,-32.77,North,32767,-999.0,8.0,255,-99.99,,,0.00,Wunderground v.1.15,2013-04-09 02:55:00,
2013-04-08 22:00:00,-999.9,-99.9,-32.77,North,32767,-999.0,8.0,255,-99.99,,,0.00,Wunderground v.1.15,2013-04-09 03:00:00,
2013-04-08 22:05:00,-999.9,-99.9,-32.77,North,32767,-999.0,8.0,255,-99.99,,,0.00,Wunderground v.1.15,2013-04-09 03:05:00,
2013-04-08 22:10:00,-999.9,-99.9,-32.77,North,32767,-999.0,8.0,255,-99.99,,,0.00,Wunderground v.1.15,2013-04-09 03:10:00,
2013-04-08 22:20:00,-999.9,-99.9,-32.77,North,32767,-999.0,8.0,255,-99.99,,,0.00,Wunderground v.1.15,2013-04-09 03:20:00,
2013-04-08 22:30:00,-999.9,-99.9,-32.77,North,32767,-999.0,8.0,255,-99.99,,,0.00,Wunderground v.1.15,2013-04-09 03:30:00,
2013-04-08 22:35:00,-999.9,-99.9,-32.77,North,32767,-999.0,8.0,255,-99.99,,,0.00,Wunderground v.1.15,2013-04-09 03:35:00,
2013-04-08 22:40:00,-999.9,-99.9,-32.77,North,32767,-999.0,8.0,255,-99.99,,,0.00,Wunderground v.1.15,2013-04-09 03:40:00,
2013-04-08 22:45:00,-999.9,-99.9,-32.77,North,32767,-999.0,8.0,255,-99.99,,,0.00,Wunderground v.1.15,2013-04-09 03:45:00,
2013-04-08 22:55:00,-999.9,-99.9,-32.77,North,32767,-999.0,8.0,255,-99.99,,,0.00,Wunderground v.1.15,2013-04-09 03:55:00,
2013-04-08 23:00:00,-999.9,-99.9,-32.77,North,32767,-999.0,8.0,255,-99.99,,,0.00,Wunderground v.1.15,2013-04-09 04:00:00,
2013-04-08 23:05:00,-999.9,-99.9,-32.77,North,32767,-999.0,8.0,255,-99.99,,,0.00,Wunderground v.1.15,2013-04-09 04:05:00,
2013-04-08 23:10:00,-999.9,-99.9,-32.77,North,32767,-999.0,8.0,255,-99.99,,,0.00,Wunderground v.1.15,2013-04-09 04:10:00,
2013-04-08 23:15:00,-999.9,-99.9,-32.77,North,32767,-999.0,8.0,255,-99.99,,,0.00,Wunderground v.1.15,2013-04-09 04:15:00,
2013-04-08 23:20:00,-999.9,-99.9,-32.77,North,32767,-999.0,8.0,255,-99.99,,,0.00,Wunderground v.1.15,2013-04-09 04:20:00,
2013-04-08 23:30:00,-999.9,-99.9,-32.77,North,32767,-999.0,8.0,255,-99.99,,,0.00,Wunderground v.1.15,2013-04-09 04:30:00,
2013-04-08 23:35:00,-999.9,-99.9,-32.77,North,32767,-999.0,8.0,255,-99.99,,,0.00,Wunderground v.1.15,2013-04-09 04:35:00,
2013-04-08 23:40:00,-999.9,-99.9,-32.77,North,32767,-999.0,8.0,255,-99.99,,,0.00,Wunderground v.1.15,2013-04-09 04:40:00,
2013-04-08 23:50:00,-999.9,-99.9,-32.77,North,32767,-999.0,8.0,255,-99.99,,,0.00,Wunderground v.1.15,2013-04-09 04:50:00,
2013-04-08 23:55:00,-999.9,-99.9,-32.77,North,32767,-999.0,8.0,255,-99.99,,,0.00,Wunderground v.1.15,2013-04-09 04:55:00,